Theta_e
354 351 351 350 351 351 351 352 351 351 351 351 352 352 353 353 353 353 353 353 355 355 355 355 355 355 355 355 354 353 352 351 353 352 352 352 353 353 351 351 350 345 343 344 344 344 344 344 344 345 346 346 346 347 347 346 345 345 345 345 344 343 343 342 342 342 342 342 342 342 341 340 340 340 341 341 340 340 341 342 343 343 343 344 347
357 356 352 350 352 351 351 353 352 352 352 352 352 352 353 353 353 354 355 355 356 356 357 356 356 355 355 355 352 351 352 352 353 351 349 348 350 350 350 349 346 342 343 345 345 346 346 346 347 347 347 348 348 348 347 347 346 345 345 345 344 344 343 343 343 342 342 342 341 341 342 341 339 340 341 339 339 340 340 342 344 344 343 342 343
360 359 355 352 354 353 352 355 353 353 353 352 352 353 354 354 354 356 357 357 356 356 356 356 355 355 354 353 351 351 352 350 351 349 345 346 348 348 348 346 343 343 346 346 346 347 347 347 347 346 346 346 347 347 346 347 346 344 345 345 345 344 343 343 342 343 343 342 341 342 344 342 341 341 340 338 340 340 339 340 343 344 344 343 343
360 360 359 356 357 356 354 356 357 355 354 354 354 355 356 356 356 356 357 356 355 355 354 354 353 353 354 353 352 353 350 349 350 348 346 347 348 348 347 346 346 346 345 343 345 346 346 345 344 343 345 345 345 346 346 345 343 343 343 344 344 344 343 343 343 343 343 343 342 343 343 342 344 342 339 339 339 339 337 339 341 342 342 342 342
361 361 360 358 357 358 358 358 359 358 358 356 356 356 357 358 356 354 356 355 355 354 353 352 352 352 353 353 353 352 347 346 347 344 345 348 347 344 344 346 348 344 340 342 343 343 343 342 341 343 344 344 344 342 344 343 340 340 341 342 343 343 342 342 342 342 342 343 342 342 341 342 344 341 339 340 339 338 338 338 338 339 339 338 338
360 361 360 359 358 358 359 359 359 360 359 358 357 358 357 357 355 354 355 355 355 354 353 352 352 352 353 351 351 349 344 342 342 339 341 342 340 338 338 342 343 341 340 341 341 340 341 340 340 342 342 342 343 341 342 341 339 338 340 340 341 341 341 341 341 340 341 342 342 341 341 342 341 339 341 343 339 338 338 337 336 336 336 335 335
359 360 360 358 358 357 358 358 359 359 359 359 358 358 357 356 355 355 355 355 354 353 353 353 353 354 350 348 348 346 341 340 339 338 337 338 337 337 338 339 339 338 338 339 340 340 340 339 339 340 341 340 340 339 339 339 338 340 340 340 340 340 340 340 340 341 340 340 341 340 340 341 340 340 342 342 340 339 337 335 336 336 336 334 335
360 359 360 359 357 357 357 358 359 359 359 359 358 358 357 356 355 356 355 355 354 354 354 354 355 352 347 346 347 343 340 339 340 338 336 336 337 337 337 338 338 337 336 337 342 341 339 338 339 339 340 338 337 337 337 337 337 339 340 339 339 339 339 340 340 340 340 340 339 339 339 339 340 340 340 340 341 341 339 337 337 336 336 334 334
359 358 360 358 356 357 357 358 358 358 359 358 358 358 357 357 356 356 356 354 354 353 355 356 353 350 348 347 344 340 339 339 339 338 336 337 337 337 338 338 338 338 337 337 340 341 339 339 338 338 338 337 336 336 335 335 335 336 337 338 338 338 338 340 340 339 339 339 338 338 338 338 338 338 339 339 339 341 341 340 337 336 336 334 332
358 358 358 357 356 357 356 357 358 358 359 358 358 358 357 357 357 356 356 355 354 355 356 355 351 350 349 345 340 338 339 338 338 337 336 337 338 337 337 339 338 337 338 337 338 339 340 340 338 337 337 336 336 336 335 334 334 335 336 337 336 336 337 338 338 338 338 337 337 338 338 338 337 337 338 338 338 339 339 339 337 336 337 335 331
358 357 357 356 356 357 356 357 358 359 359 358 359 358 358 358 357 357 356 355 356 355 355 353 352 350 347 341 338 338 338 337 337 335 336 337 337 337 337 338 338 337 337 337 336 338 339 338 338 338 337 337 337 337 336 335 335 335 335 335 335 335 336 335 336 337 337 338 337 337 336 336 336 336 336 336 337 338 338 337 336 335 336 335 331
357 358 357 356 357 357 356 356 357 358 359 359 359 359 358 358 357 357 356 356 357 356 354 353 353 348 342 340 338 338 339 339 337 335 335 335 336 337 337 338 337 336 336 335 336 338 339 338 338 337 336 337 337 337 337 336 335 335 335 334 334 334 335 336 335 335 336 336 337 335 334 333 334 334 333 333 334 336 336 335 334 334 335 335 332
356 357 356 357 357 356 356 355 355 357 358 358 358 359 358 358 358 358 357 358 356 356 353 351 348 343 340 338 336 337 339 339 336 335 335 336 337 338 338 338 337 336 335 336 337 338 338 337 336 336 336 337 337 336 337 336 335 335 335 334 333 333 335 336 335 334 334 334 335 335 334 333 334 333 331 332 333 334 334 334 333 334 334 333 331
355 356 355 356 356 355 355 355 354 356 357 358 358 358 359 358 358 358 358 357 356 355 352 344 342 340 338 337 337 338 338 336 335 334 336 337 337 338 338 337 336 335 335 337 338 338 336 336 335 335 337 337 337 337 337 336 334 334 334 334 333 333 334 335 335 333 333 333 333 334 334 334 334 332 331 332 332 332 333 333 333 333 332 331 330
354 356 355 354 353 353 354 354 354 355 357 357 358 358 359 358 359 358 357 357 356 354 348 341 339 338 337 338 338 337 337 335 334 333 335 336 337 337 337 336 336 335 335 336 336 336 335 336 337 336 337 336 336 336 335 335 334 334 334 333 333 333 333 334 335 334 333 333 333 333 333 334 333 332 331 331 331 331 331 331 332 332 331 329 328
353 354 355 354 352 352 354 353 353 355 356 357 357 358 358 357 358 357 356 357 355 349 343 340 340 338 338 340 338 336 336 335 334 334 334 336 337 337 336 335 335 335 335 336 336 336 336 337 337 335 335 335 335 335 335 335 334 334 334 333 333 333 333 334 335 334 333 333 333 333 333 333 332 331 330 330 329 328 326 325 326 330 331 329 329
351 352 353 353 352 351 352 352 352 354 355 356 357 357 358 358 357 356 354 354 351 346 342 342 342 339 338 340 338 336 336 334 334 334 335 336 336 336 335 335 334 335 336 336 336 336 335 335 334 334 334 335 335 335 334 335 335 335 334 333 333 333 334 334 335 334 333 333 334 333 333 332 331 331 330 329 327 322 319 319 321 325 329 329 329
351 352 350 351 351 349 352 352 351 354 355 356 357 357 357 357 356 355 352 351 348 346 344 343 342 340 338 338 337 337 336 335 335 334 335 337 335 334 335 334 333 335 336 336 335 334 333 333 332 333 333 333 333 334 334 334 335 334 334 334 333 333 334 335 335 335 334 334 334 334 334 332 331 331 329 328 326 319 316 318 319 320 324 327 328
350 351 350 351 350 349 351 352 351 353 355 356 357 357 357 356 356 354 352 351 349 346 344 342 342 341 340 339 338 337 337 336 336 335 335 336 335 334 335 333 333 335 335 334 334 333 332 332 331 331 330 331 331 331 332 334 334 334 335 334 334 334 334 335 335 335 335 335 335 334 334 333 330 330 329 328 324 318 316 318 319 319 321 323 325
350 349 349 351 349 349 351 351 351 353 354 356 356 357 357 356 354 353 352 351 349 345 343 343 343 342 341 339 339 338 337 337 338 336 336 337 336 336 334 332 333 335 335 334 333 332 332 332 331 331 331 331 331 330 331 333 333 334 334 334 334 334 334 335 335 335 335 335 335 335 335 334 331 330 329 328 325 319 316 318 319 319 320 320 323
348 348 349 349 347 348 350 351 351 352 354 356 356 357 357 355 353 352 350 349 347 345 343 343 343 341 339 339 339 338 337 338 338 337 337 337 337 335 332 331 333 335 335 334 333 332 332 332 332 332 332 332 331 331 331 331 332 333 332 333 334 334 334 334 334 334 335 335 334 335 335 333 331 330 329 329 327 321 316 317 319 319 319 320 322
348 346 346 349 348 347 349 351 350 351 354 355 356 357 356 355 353 351 350 348 347 345 343 343 343 341 340 339 339 338 338 339 338 337 337 337 335 334 331 330 332 333 334 333 332 332 332 332 333 333 332 332 331 331 331 331 331 332 333 333 333 334 333 333 333 334 334 334 334 335 335 333 331 330 329 329 328 325 319 317 318 319 320 320 321
346 345 345 349 348 347 347 349 349 351 353 354 356 357 356 355 353 350 349 348 346 345 343 342 342 341 340 339 338 338 338 339 337 336 336 336 335 333 329 329 331 331 332 332 332 332 332 333 333 333 333 332 332 332 331 332 332 332 333 333 333 333 332 332 332 332 332 332 334 334 334 333 331 330 329 328 328 327 324 319 317 318 320 320 321
347 345 346 348 347 348 347 348 349 350 352 353 355 356 355 354 353 351 349 348 346 344 342 341 342 340 338 338 338 339 339 338 338 336 336 335 334 330 328 329 330 331 332 332 332 332 332 332 332 332 333 332 332 331 332 333 332 332 333 333 333 333 332 332 331 332 332 331 332 333 334 333 332 330 330 329 328 328 327 323 319 318 319 320 320
351 348 349 350 351 352 348 346 349 349 351 353 354 355 355 354 353 351 349 348 345 344 342 341 340 338 337 338 338 339 339 339 338 336 336 335 333 329 329 331 332 333 334 333 333 333 331 332 332 331 331 331 331 331 332 332 331 331 331 332 333 333 332 332 332 332 331 330 330 331 332 333 332 331 330 329 328 328 328 326 322 319 318 319 320
353 351 351 353 354 354 349 346 349 350 350 352 353 354 355 353 352 351 349 348 345 344 342 340 339 338 338 338 338 339 340 339 337 336 336 335 333 331 332 333 334 334 333 333 333 333 332 331 330 330 330 331 331 330 330 330 329 329 329 330 332 332 332 332 333 333 331 330 330 330 331 332 332 331 330 329 329 328 328 328 326 322 320 319 320
354 353 352 354 356 356 352 348 348 350 350 352 353 353 353 352 352 351 350 348 345 343 342 340 338 337 338 339 339 339 339 338 337 336 335 335 335 334 334 336 335 333 331 331 332 332 332 331 331 331 331 330 330 329 329 329 329 329 329 330 331 332 332 333 334 334 332 330 330 329 329 330 331 331 331 330 329 329 328 328 328 326 322 321 321
355 353 352 355 355 356 355 349 348 350 350 352 352 353 352 352 351 351 349 348 345 343 342 340 339 338 339 339 339 338 338 337 337 336 335 336 336 335 336 336 334 331 331 331 332 331 331 331 331 331 332 331 330 329 329 329 329 329 329 330 330 331 333 334 333 333 331 330 328 327 328 329 330 330 329 329 329 328 328 327 328 327 325 323 323
357 355 354 354 352 355 356 351 349 350 351 351 352 352 352 351 351 349 349 347 345 344 342 340 339 339 340 339 338 339 338 337 336 336 337 336 336 336 337 335 333 332 332 332 331 331 330 331 331 331 331 331 329 330 330 329 328 328 329 329 330 331 332 333 332 331 331 329 327 327 328 329 330 328 327 328 328 328 328 328 327 327 326 324 324
358 356 355 354 352 352 354 353 350 349 351 351 351 352 351 350 349 348 347 346 345 344 342 340 339 339 339 339 339 338 338 337 337 336 336 335 335 337 337 335 333 333 333 332 331 332 333 333 332 331 330 330 329 330 330 328 328 328 329 330 330 330 331 331 331 331 331 330 328 327 328 329 329 328 326 326 327 327 328 328 328 328 326 326 326
361 360 357 357 356 353 353 354 350 349 351 351 351 351 350 349 348 347 346 345 344 343 341 340 339 339 340 339 340 339 337 335 336 336 335 335 336 337 337 336 335 333 332 333 332 333 333 333 334 333 332 331 330 329 329 328 327 328 329 330 329 329 328 329 330 331 330 330 329 328 328 329 329 328 326 325 326 326 327 327 327 327 327 327 327
365 367 367 367 367 364 360 354 348 349 351 351 351 350 348 348 347 345 344 343 342 341 341 340 339 339 340 339 339 337 334 334 336 336 337 337 337 337 337 336 335 333 333 333 333 333 333 333 335 334 333 332 330 329 328 327 328 328 329 329 328 328 327 327 328 329 329 329 330 329 329 329 329 329 327 326 325 325 325 326 326 327 326 326 327
373 379 381 382 381 371 360 351 347 350 351 350 350 349 347 347 345 343 342 341 341 341 341 340 339 339 339 338 336 332 331 334 338 337 337 338 338 337 336 335 334 334 333 333 333 333 334 334 335 334 334 333 331 329 328 327 328 328 328 328 328 328 328 327 326 326 326 327 328 328 327 327 329 330 328 326 326 324 325 325 326 326 326 327 327
371 384 394 399 390 367 354 351 350 350 351 350 349 348 346 344 341 339 340 340 341 341 341 340 339 338 338 336 335 332 332 336 339 337 337 338 338 337 336 335 335 334 333 333 333 333 334 334 335 335 334 333 331 330 329 328 328 329 328 329 329 329 328 327 326 325 325 325 325 325 325 326 328 330 329 328 326 325 325 325 326 326 327 327 326
368 377 385 393 382 359 350 353 353 350 351 349 346 344 343 340 339 338 339 340 339 338 338 338 337 336 336 336 336 335 336 339 339 338 339 338 338 337 336 334 334 334 333 334 334 334 335 335 336 335 333 332 330 329 329 329 330 330 330 329 329 329 328 327 326 325 325 325 324 324 326 328 330 331 330 329 327 326 325 325 326 327 327 325 323
370 367 363 365 362 354 350 352 351 350 350 346 343 342 341 338 339 338 338 339 338 337 336 336 336 336 337 338 337 336 337 339 339 339 339 338 337 337 335 335 335 334 334 334 334 334 335 335 336 335 333 332 331 330 330 330 330 329 329 328 328 328 327 326 326 325 324 323 324 326 328 330 331 331 330 329 328 327 326 326 327 326 324 322 321
364 357 352 351 351 351 350 349 348 347 346 343 342 341 339 338 338 338 339 338 337 336 336 336 337 337 337 338 337 335 336 337 337 338 338 336 336 335 335 336 335 335 335 334 334 335 335 336 335 335 334 332 331 330 330 329 328 327 327 326 327 327 326 326 325 324 323 324 326 329 330 331 332 331 330 329 329 327 327 327 325 323 322 322 323
354 348 347 347 346 347 347 346 345 343 342 342 341 340 339 338 338 338 338 337 337 337 337 337 338 337 335 336 336 336 337 337 337 337 335 335 335 335 335 336 335 336 335 334 335 336 335 335 333 332 332 331 330 330 329 328 327 326 326 326 327 326 326 325 324 324 325 326 327 328 329 330 330 329 328 328 328 328 327 325 322 322 322 323 322
347 348 347 343 343 344 343 344 342 340 340 341 340 339 338 337 338 337 336 336 336 337 336 336 336 334 334 335 337 337 339 339 338 337 336 336 336 335 336 336 335 335 334 333 335 335 333 333 332 331 330 330 329 329 328 327 326 326 327 327 326 325 324 323 325 326 326 325 324 323 324 326 327 327 328 328 327 326 325 322 322 322 321 320 320
347 347 345 342 342 341 340 340 339 338 339 340 339 339 338 337 338 338 336 336 336 336 336 336 335 334 334 336 338 340 342 341 340 339 337 337 337 336 337 337 335 334 334 334 334 332 331 331 331 330 330 329 329 328 326 326 326 326 327 328 326 325 324 324 325 326 324 322 321 322 323 324 325 327 327 326 325 323 322 322 322 320 318 317 318
345 345 344 341 340 340 339 339 338 338 338 338 338 337 336 337 337 337 337 336 336 336 336 335 335 335 335 337 340 342 344 342 340 340 339 337 337 337 336 336 335 335 334 332 332 331 331 331 331 331 330 329 328 327 325 325 325 326 327 327 326 325 325 325 325 324 322 321 322 323 324 324 326 326 326 325 323 322 322 322 320 318 316 316 316
345 345 344 341 339 339 338 337 337 337 337 336 336 336 336 335 335 336 337 336 335 335 335 335 335 336 336 337 339 342 344 343 341 339 338 337 337 337 336 336 335 334 331 330 330 329 330 332 332 331 330 328 326 325 324 324 325 326 327 327 326 326 325 324 324 322 321 321 322 324 325 325 325 325 325 324 324 323 322 320 318 316 315 315 316
343 344 343 342 340 338 337 337 336 336 337 336 335 336 335 334 334 335 335 335 335 335 335 335 335 335 336 337 339 341 343 343 341 339 337 337 336 336 335 334 332 330 328 328 327 327 330 333 332 330 328 326 325 323 323 323 324 325 326 326 326 325 323 322 321 320 321 321 323 324 323 323 323 324 324 325 325 323 320 318 316 315 314 314 315
342 342 343 342 340 337 336 336 335 335 336 336 336 336 335 335 335 334 334 334 334 334 335 335 335 336 338 339 340 341 342 341 340 337 335 334 333 333 332 331 329 327 327 327 326 327 331 333 332 329 326 324 323 323 323 323 324 324 325 325 324 322 321 320 320 320 320 321 322 322 321 322 323 323 324 324 323 321 318 315 315 314 313 313 314
342 341 342 341 339 338 337 335 335 336 336 336 336 336 335 335 335 334 334 334 334 334 335 336 337 338 339 339 340 340 340 341 340 338 335 333 332 330 330 329 328 328 328 327 326 329 333 333 330 329 327 325 324 324 324 323 324 324 324 324 322 320 320 320 320 320 320 320 320 321 322 323 322 321 321 320 319 318 315 313 313 312 311 311 311
341 340 341 339 338 337 336 336 336 335 335 336 336 335 336 336 337 337 336 335 335 337 337 337 338 339 339 339 339 339 339 339 338 336 335 333 331 329 328 328 328 327 327 327 328 330 332 332 330 329 328 327 326 325 325 324 324 323 322 321 320 319 319 320 320 320 320 320 321 321 321 320 318 317 317 316 315 314 313 311 311 310 309 309 309
341 341 339 338 337 336 336 336 335 335 335 336 335 336 338 339 339 337 334 333 333 333 334 336 337 337 336 336 337 337 337 336 335 334 332 331 329 328 327 327 327 328 330 330 330 332 333 331 330 329 328 327 327 326 325 324 323 322 321 320 319 319 319 319 319 319 320 321 320 318 317 317 316 315 315 314 313 312 311 310 309 308 307 307 308
342 341 339 337 336 336 336 335 335 335 335 335 337 340 342 341 338 333 331 331 330 330 331 333 333 332 332 333 335 334 334 332 331 330 329 328 327 326 326 326 327 330 332 332 330 330 330 329 327 327 327 327 327 327 325 323 322 321 320 318 318 318 317 318 318 319 320 319 317 316 316 315 314 314 313 312 311 310 309 308 307 306 306 306 306
343 341 339 338 337 337 337 337 337 337 336 336 339 342 341 337 334 332 331 331 330 330 331 332 331 331 332 334 334 333 331 330 329 328 327 327 327 327 327 328 329 330 330 328 326 326 326 324 324 325 326 326 326 325 323 321 320 319 318 317 317 316 316 317 318 318 318 317 316 315 315 313 312 311 311 309 308 307 306 305 305 305 304 304 305
343 342 342 340 339 338 338 337 337 336 336 336 337 339 337 335 334 334 332 331 332 333 333 332 332 331 332 334 333 331 330 329 328 327 327 327 328 328 328 328 327 325 325 324 324 324 323 322 322 322 323 323 322 321 320 318 318 318 317 316 315 314 315 316 317 317 316 315 314 313 312 311 310 308 307 306 305 304 304 303 303 303 303 303 303
342 343 343 341 340 340 338 335 334 334 334 333 333 335 335 333 333 332 331 332 335 336 336 335 334 333 333 333 332 331 330 329 328 327 327 327 326 324 324 323 323 323 323 324 323 323 322 321 320 320 320 320 319 318 317 316 317 317 316 315 314 313 314 315 316 316 314 313 312 310 309 308 307 307 306 305 304 303 303 302 302 302 302 302 302
Wind_Speed
12 18 23 26 28 28 28 27 26 27 29 30 28 28 28 27 26 24 23 23 22 21 21 21 19 18 17 16 16 15 14 13 13 13 13 12 12 11 9 8 6 4 3 2 2 2 2 4 5 6 7 7 9 9 9 10 10 11 12 11 11 11 12 11 10 11 12 12 12 15 18 15 12 10 7 11 14 13 11 11 13 15 17 18 19
11 14 19 24 25 26 27 26 27 26 27 29 28 27 28 27 26 24 23 23 23 23 23 23 22 20 19 17 16 14 12 12 12 12 11 10 9 9 8 7 4 1 1 1 2 3 5 6 7 8 9 9 10 10 10 10 10 10 11 12 12 11 13 13 11 10 8 8 9 11 12 11 11 6 7 16 17 13 13 12 10 11 13 16 17
11 12 16 21 23 25 26 26 27 28 28 29 29 28 28 27 27 25 24 25 24 23 23 23 22 21 18 15 13 11 10 10 11 9 8 8 8 9 8 5 3 2 1 2 2 4 4 4 5 6 6 6 7 7 8 8 8 8 8 10 11 11 11 10 9 7 6 7 8 6 4 6 7 5 12 20 14 12 16 15 11 10 10 13 15
13 12 13 19 22 24 25 26 27 28 28 28 28 28 28 27 26 26 27 25 24 22 22 21 20 18 16 13 11 10 9 10 11 10 9 8 8 7 6 5 4 3 2 2 2 2 1 0 2 3 2 3 4 4 5 5 6 6 5 6 7 9 9 8 7 5 6 6 4 3 2 3 2 4 15 16 10 13 17 14 12 11 11 11 13
15 14 13 15 19 22 25 26 26 27 28 29 29 29 28 27 26 26 27 26 24 23 20 18 18 17 15 14 12 10 8 8 8 9 8 8 7 7 6 6 6 4 3 3 2 3 3 1 2 1 2 2 3 4 3 3 5 6 5 4 3 5 6 6 7 6 6 5 2 2 2 2 1 5 10 8 10 16 13 12 14 12 12 13 14
15 14 14 15 19 22 24 26 25 26 28 29 30 30 29 28 26 26 27 25 24 23 20 18 18 17 16 16 14 11 10 11 12 12 11 10 9 9 9 8 8 6 4 2 0 0 1 2 0 2 0 0 1 2 2 2 5 6 5 5 4 4 4 6 7 7 7 5 4 2 2 3 4 5 4 3 10 13 10 14 15 12 15 16 15
13 14 14 15 19 21 22 26 27 27 28 29 29 29 29 28 28 28 27 25 24 23 21 20 19 17 16 17 15 13 13 13 12 11 10 10 10 9 9 8 7 4 2 1 2 2 2 2 1 3 2 1 2 1 2 3 3 4 4 4 4 4 4 5 6 7 6 5 5 4 4 6 7 6 2 2 6 7 10 16 14 13 18 17 16
13 14 14 15 19 22 23 26 29 29 29 30 29 30 30 29 29 29 28 26 25 23 22 21 20 19 18 17 14 13 13 12 10 8 6 7 7 6 5 5 4 2 1 2 3 3 3 2 3 4 3 1 1 1 1 2 3 3 3 3 3 3 3 4 5 6 5 5 5 4 4 4 6 8 7 4 2 3 9 13 13 18 20 18 18
15 15 15 16 20 24 26 28 29 30 30 31 31 31 31 30 29 29 28 27 26 24 23 21 20 20 19 17 15 12 11 11 10 8 7 7 7 6 5 6 5 2 2 3 3 3 4 5 5 4 3 1 1 1 1 1 2 2 2 3 3 3 3 3 3 4 4 4 4 3 3 4 3 4 5 6 5 3 4 6 12 18 19 20 21
15 15 15 19 24 27 29 29 30 30 32 33 32 31 31 31 30 30 29 28 27 25 23 22 21 21 20 19 16 13 12 12 11 9 9 9 8 7 6 7 5 3 3 4 3 2 4 6 4 3 2 0 0 1 2 1 2 2 2 2 2 3 2 1 1 2 2 3 4 3 4 5 3 1 2 3 4 4 4 4 9 12 12 19 24
13 14 15 20 26 28 29 29 30 31 32 33 32 32 32 32 31 31 30 29 28 26 24 23 23 22 21 20 17 15 15 14 13 11 10 10 9 7 7 7 6 4 4 4 3 2 4 5 2 1 0 2 2 3 4 3 3 3 2 2 1 2 2 2 2 1 2 2 3 3 4 4 3 3 4 6 4 3 4 4 8 10 10 15 22
13 13 14 16 20 23 27 28 30 31 32 32 33 33 32 32 32 32 31 30 29 27 26 25 25 24 22 20 18 16 17 16 14 11 10 10 10 9 9 8 6 5 4 3 3 3 4 2 1 2 3 3 3 4 5 5 5 3 3 5 3 2 2 3 2 1 1 1 2 3 3 3 3 4 7 8 7 6 5 4 7 10 8 12 20
14 13 13 14 14 19 24 27 28 30 32 33 34 33 33 33 34 33 33 32 31 29 28 27 27 26 22 20 18 18 18 17 14 12 11 11 11 11 10 9 6 5 5 4 3 4 2 4 5 5 4 4 4 5 5 5 5 4 4 6 6 4 3 3 3 3 2 2 3 3 3 3 3 4 6 7 8 8 6 4 7 9 6 11 18
14 13 14 14 15 19 25 27 28 30 33 34 34 34 34 34 35 35 35 34 32 31 31 29 28 26 23 21 20 19 19 17 14 13 13 12 12 12 11 9 7 7 6 5 4 4 5 6 5 4 4 5 6 6 6 7 6 5 5 6 6 5 4 4 5 5 3 4 4 4 4 4 3 5 5 5 6 7 7 6 7 9 7 9 12
14 14 16 15 18 23 27 28 30 32 34 35 35 35 35 35 36 37 36 35 35 34 34 32 29 26 24 23 22 21 19 16 15 14 14 13 13 13 11 9 9 8 8 7 6 6 6 5 5 5 5 6 6 6 7 7 7 6 6 5 6 6 6 6 7 7 7 6 6 5 5 5 4 5 5 5 5 5 6 6 5 5 5 5 6
14 14 15 15 19 25 27 28 30 32 35 36 36 37 37 36 37 38 37 37 37 37 36 33 30 27 26 26 24 22 20 17 16 15 14 14 13 12 11 10 10 9 9 8 6 6 6 6 7 6 5 5 5 6 7 8 8 8 8 7 7 6 7 7 8 9 9 9 7 7 7 6 5 5 5 4 4 4 4 4 4 4 4 4 3
14 14 15 15 18 23 27 29 30 32 35 37 39 40 41 40 39 38 38 38 39 38 37 34 32 29 28 27 25 23 21 18 17 16 15 14 13 12 11 10 10 9 9 9 8 7 7 7 7 6 5 5 6 6 7 9 10 10 10 9 8 8 8 9 9 10 10 10 9 8 8 8 7 6 6 5 3 4 3 2 3 4 4 4 3
16 16 16 15 18 23 27 29 32 35 38 40 42 43 43 42 42 40 39 40 41 40 38 35 33 31 30 29 26 24 22 19 17 16 16 15 14 13 12 11 11 10 10 10 9 8 7 7 7 7 6 7 7 7 7 7 8 9 10 10 10 10 10 10 10 10 11 10 10 10 10 10 9 9 8 6 5 4 3 2 2 3 4 4 4
14 14 13 13 16 22 27 29 33 36 39 41 42 42 42 42 43 43 43 43 43 41 38 37 34 33 33 30 27 25 22 19 18 16 16 16 15 15 14 12 11 11 11 10 10 9 9 8 8 7 6 6 6 7 7 7 8 9 10 10 11 12 12 11 11 11 11 11 12 12 12 11 11 11 10 9 7 6 4 3 3 3 4 5 7
13 13 13 14 17 24 30 32 34 37 39 39 39 39 41 41 41 41 42 42 42 41 38 37 35 34 33 31 28 25 22 20 19 17 17 18 17 17 15 13 11 11 12 11 11 11 11 10 9 8 7 7 5 5 6 8 10 12 12 13 14 13 13 13 13 12 13 13 14 15 14 13 12 12 12 11 10 8 6 5 5 5 5 5 9
14 14 14 14 17 25 31 34 35 36 35 35 36 38 40 39 39 40 40 41 41 41 38 37 36 35 33 31 29 26 23 21 21 19 18 18 18 17 14 12 12 12 12 13 13 13 12 12 11 11 10 9 8 8 8 9 12 13 14 15 15 15 15 15 14 14 13 14 15 16 16 14 13 13 13 13 13 11 9 8 7 8 8 7 10
15 15 15 14 15 22 28 30 30 30 30 33 35 36 36 36 37 38 39 41 42 40 38 37 37 36 34 32 30 27 24 23 22 20 19 19 18 16 14 13 13 13 13 15 15 14 13 14 14 13 12 12 12 12 12 12 13 15 15 15 15 15 16 16 16 15 15 15 15 16 16 15 15 15 15 14 15 14 13 12 11 10 11 11 11
15 15 14 13 15 21 26 27 28 29 31 33 34 34 35 36 36 36 38 41 41 40 39 38 38 37 35 33 31 28 25 24 23 22 20 19 18 16 14 13 13 13 15 17 18 17 16 16 17 16 16 15 15 16 16 16 16 17 18 18 17 16 16 16 16 17 16 16 16 16 17 17 16 17 17 17 17 18 16 15 15 14 14 15 14
14 14 13 12 14 17 19 21 25 28 30 32 33 34 34 34 34 35 38 41 40 39 39 38 38 37 35 34 32 29 28 27 25 23 21 20 19 16 14 14 13 13 15 18 18 18 17 17 17 17 17 16 16 17 17 18 17 18 19 19 19 18 17 16 17 17 17 16 16 17 17 18 18 19 20 19 19 20 20 19 18 17 17 18 18
12 12 11 11 11 12 15 19 24 26 29 31 33 33 33 33 34 37 39 39 38 37 37 37 37 36 35 35 33 30 30 28 26 23 20 20 18 15 14 14 14 14 17 19 19 18 17 16 15 15 15 14 13 13 13 14 15 16 17 18 19 19 18 17 17 16 16 16 16 17 18 18 19 21 22 22 22 22 22 22 21 21 20 20 20
12 13 12 11 12 12 14 19 24 27 29 31 32 33 33 33 35 37 38 38 37 37 37 38 37 35 34 35 33 32 30 27 24 20 18 18 17 15 15 15 15 15 16 18 18 17 16 14 13 13 13 11 10 10 11 12 14 15 16 18 19 20 19 18 17 16 15 16 16 17 18 18 19 21 22 23 24 24 24 25 25 25 24 22 21
12 12 11 12 12 13 15 19 24 27 29 31 32 33 33 33 36 38 38 38 37 36 37 39 39 38 36 35 32 31 29 26 23 19 18 20 19 17 18 18 16 14 14 16 16 15 14 13 12 11 11 10 10 12 13 13 14 15 17 18 19 20 20 19 18 16 15 15 15 16 16 17 18 20 22 23 25 26 26 27 28 28 26 23 21
11 11 12 13 13 14 14 17 23 27 28 30 31 32 33 35 38 39 38 37 37 37 38 39 40 39 35 30 28 29 28 25 23 21 21 22 21 20 22 21 16 14 14 15 14 13 12 12 11 11 11 12 14 15 15 14 14 15 16 17 18 19 21 20 18 17 15 15 15 15 16 16 17 18 19 21 24 26 26 27 28 28 27 24 22
12 11 12 12 13 14 13 15 21 25 25 26 28 30 31 33 36 37 36 36 36 37 36 36 35 31 24 23 24 27 28 25 22 23 24 23 21 22 23 21 17 15 15 14 12 11 10 9 10 12 13 15 16 16 16 15 15 16 17 18 19 19 20 20 19 17 17 16 16 17 17 16 16 16 17 18 20 22 24 26 27 27 26 25 23
12 12 12 12 12 13 13 13 17 21 23 25 27 28 29 30 32 31 31 32 34 34 32 30 29 26 23 25 28 29 29 25 23 25 25 23 22 24 24 21 19 17 16 14 14 13 11 10 11 12 14 15 16 17 17 16 16 17 18 19 19 20 20 20 20 19 19 19 18 18 18 17 17 17 17 16 17 20 22 24 25 25 25 25 24
11 10 10 9 9 9 9 9 14 19 24 25 24 24 26 28 31 33 36 39 39 37 33 28 29 30 31 34 34 32 26 22 25 28 25 23 24 26 25 23 21 19 17 16 16 15 14 13 13 14 15 16 17 18 18 18 18 18 18 18 19 20 20 20 20 20 20 21 20 20 20 19 19 18 17 16 17 19 20 21 22 22 23 24 24
8 8 7 7 7 7 6 8 13 18 21 21 22 24 26 31 37 38 37 35 32 31 30 29 35 39 38 36 35 28 18 18 28 31 27 26 27 27 26 24 23 21 18 17 17 16 16 15 15 16 18 19 19 19 18 18 19 18 18 18 19 19 19 19 19 20 20 21 21 21 22 22 21 20 19 18 19 19 17 17 18 18 19 20 21
7 7 7 7 7 7 10 13 15 15 17 21 26 30 33 37 35 29 27 28 29 29 29 30 34 35 33 32 28 17 13 22 31 32 29 29 29 27 26 25 23 21 20 18 18 18 17 17 18 19 20 21 21 21 20 20 20 19 17 17 19 20 19 19 19 19 20 20 21 22 23 23 22 21 20 19 20 19 17 15 16 17 18 20 20
8 8 9 9 8 8 10 12 11 10 13 20 25 27 29 27 23 22 28 33 32 29 27 29 32 31 29 26 18 12 20 29 33 32 32 32 31 29 27 25 23 22 21 21 20 19 19 19 20 20 20 22 22 23 23 21 20 18 17 17 19 21 20 19 19 18 19 19 20 21 22 22 22 21 20 20 20 19 17 17 18 19 21 22 23
8 8 7 5 4 4 6 8 10 11 14 18 17 14 14 14 15 17 20 21 20 20 21 26 30 29 24 18 13 18 27 32 32 33 34 33 32 30 28 25 24 24 24 23 21 20 20 21 21 20 21 21 22 23 23 21 18 17 17 17 18 19 20 19 18 17 19 19 19 20 20 20 20 20 19 20 20 19 17 18 19 21 23 24 24
7 7 6 6 8 12 15 16 17 18 20 22 20 20 22 21 21 25 25 22 23 24 24 27 29 26 20 17 20 26 31 32 32 33 34 33 32 31 28 27 26 26 25 24 22 22 21 21 20 21 22 22 22 22 21 18 16 16 17 18 18 18 18 17 16 17 19 18 17 18 18 19 19 20 19 20 20 19 18 18 20 21 22 23 24
4 5 8 12 17 20 21 21 21 21 24 26 26 29 31 29 30 34 34 32 31 31 34 35 33 32 30 27 27 30 31 31 32 33 33 33 32 31 30 29 28 28 26 24 24 23 21 20 19 20 21 20 19 18 16 15 14 15 16 16 15 14 14 15 16 18 18 15 14 14 15 17 19 19 19 19 19 18 17 17 18 18 19 22 26
10 12 13 16 21 22 22 23 23 23 25 29 31 33 33 32 32 35 37 37 36 37 38 37 36 39 39 33 31 32 32 32 34 35 34 34 33 33 32 31 29 28 26 24 23 22 19 17 17 18 17 15 13 13 13 13 13 13 12 11 10 10 12 14 17 16 14 12 12 13 14 15 17 18 17 17 17 16 15 15 14 15 18 23 27
13 17 18 19 21 23 23 25 25 25 28 31 33 35 34 32 33 35 35 35 35 36 37 38 38 40 39 34 31 32 33 33 35 37 36 35 34 34 33 32 30 28 25 23 21 18 14 13 14 14 12 11 10 10 11 11 11 10 9 8 8 9 12 13 14 13 13 13 13 14 13 13 14 14 14 14 13 13 13 12 11 13 18 23 25
13 17 21 23 24 25 24 23 24 27 29 32 33 34 33 32 34 34 33 34 37 38 40 41 40 40 38 34 32 34 36 36 37 38 37 36 35 34 33 32 30 28 25 19 12 8 8 10 12 11 10 9 8 9 8 8 8 9 9 8 8 9 10 12 13 13 14 15 15 13 12 10 10 11 10 11 12 12 11 10 10 13 17 20 23
13 16 20 22 22 22 23 23 26 29 31 31 32 30 28 29 30 30 32 37 40 41 40 39 37 35 33 31 30 33 35 35 37 37 35 34 34 33 31 29 27 23 15 6 3 3 8 12 12 10 8 7 7 7 7 6 7 8 9 8 8 8 10 12 13 14 15 15 14 12 10 9 8 9 10 12 12 11 9 8 10 13 15 17 19
13 16 19 20 18 19 21 23 27 30 32 32 31 27 26 27 28 31 36 38 38 37 37 35 32 30 29 28 30 33 34 34 35 34 32 30 29 27 25 23 21 16 12 10 8 10 14 14 12 9 7 6 7 7 7 6 7 7 8 8 8 9 10 12 14 15 15 14 12 11 9 8 8 9 12 13 11 8 6 7 9 12 14 16 16
11 12 15 18 17 18 20 23 26 29 30 31 29 27 26 27 29 34 35 33 33 35 34 30 28 27 26 25 25 24 23 23 23 22 22 23 22 21 21 20 18 13 11 11 13 14 14 14 12 9 6 6 7 7 7 7 7 7 7 7 8 9 10 12 13 14 13 12 10 9 8 9 9 10 11 10 6 4 4 7 10 11 14 15 15
9 11 13 15 16 17 18 22 25 26 26 28 29 27 25 26 30 33 31 29 30 31 28 27 26 24 21 19 18 16 14 15 17 17 18 19 20 20 21 20 17 11 7 10 15 15 15 15 13 9 7 6 7 7 7 7 7 6 7 7 7 9 10 10 11 11 10 9 9 10 10 9 7 5 4 2 1 1 5 8 9 11 14 16 16
11 13 14 15 16 19 20 21 22 23 25 26 26 24 23 25 27 26 24 25 25 23 20 17 13 9 9 13 18 20 21 23 24 24 24 24 23 22 20 18 14 11 10 15 16 15 16 16 12 9 7 6 7 7 7 7 6 6 7 7 8 8 9 9 9 8 8 8 8 7 5 2 0 1 2 2 2 3 6 8 8 11 14 16 17
12 14 14 13 15 18 20 19 19 21 23 23 22 22 22 20 15 11 11 12 11 11 12 13 12 8 7 12 17 20 22 24 25 25 26 26 26 23 18 14 11 10 12 14 14 14 15 14 11 8 7 7 8 8 8 7 7 6 7 8 8 8 8 8 8 6 6 5 2 1 2 3 2 2 2 2 3 3 5 7 9 12 15 16 16
11 14 16 16 15 15 15 14 15 17 18 18 18 18 15 12 11 14 16 16 14 10 9 12 14 13 15 18 21 22 22 22 21 22 24 24 21 16 12 10 10 11 11 11 11 12 13 11 9 8 8 9 9 9 8 7 7 7 8 9 8 8 7 7 6 5 3 0 4 5 4 3 3 3 3 3 4 5 6 8 11 14 16 17 16
12 15 17 16 15 13 12 12 13 15 17 17 15 11 11 14 17 17 15 14 13 10 10 14 17 19 19 21 23 23 24 24 23 22 21 18 14 11 9 9 11 11 11 11 11 11 11 10 9 8 9 10 10 9 7 7 7 8 9 8 7 6 5 5 5 3 0 3 4 4 3 2 3 4 4 5 7 8 10 11 13 15 18 18 18
10 12 13 13 13 14 14 14 14 16 18 16 13 15 18 18 16 12 8 5 6 9 13 18 20 21 21 22 23 24 26 25 23 20 17 13 11 10 10 10 11 11 12 12 10 9 8 7 7 7 8 8 8 7 7 7 8 9 8 6 3 3 4 5 5 2 2 3 2 1 2 4 6 7 8 10 12 13 14 15 16 17 19 20 21
9 10 11 12 14 16 17 16 15 16 18 17 17 20 21 18 13 8 3 3 5 10 15 19 21 20 20 23 23 23 23 22 20 17 15 12 10 10 10 12 13 12 10 8 6 5 5 5 5 5 5 5 5 6 6 7 7 7 4 2 0 2 4 4 3 1 2 2 2 3 5 7 8 10 12 13 15 16 17 18 19 18 20 21 22
11 14 15 15 17 18 18 17 18 19 21 20 18 17 17 16 13 7 2 9 12 16 18 20 22 21 22 23 22 21 21 20 18 17 16 16 15 13 12 12 11 9 7 5 4 3 3 4 4 3 3 4 4 5 5 5 4 3 3 3 2 2 3 3 2 1 0 2 3 5 7 9 9 10 11 12 14 16 17 18 19 19 20 21 21
Wind_Direction
182 181 181 180 179 179 181 181 177 177 180 182 182 184 187 187 189 194 198 200 199 198 199 204 208 209 213 220 225 227 229 233 236 241 246 246 248 251 248 248 247 245 251 246 261 302 321 325 323 319 311 307 310 315 321 323 321 319 315 310 306 304 306 310 315 313 305 303 310 315 318 326 328 321 333 347 344 340 333 309 285 273 268 269 273
164 170 174 173 173 175 177 177 177 178 180 183 184 183 186 187 188 191 194 197 200 201 202 206 210 210 212 218 222 225 229 236 240 241 241 237 234 233 233 232 220 186 195 245 294 305 310 314 313 312 307 304 305 307 313 313 312 314 309 304 302 297 296 303 311 305 294 302 314 315 319 337 345 346 357 351 350 356 359 350 328 301 279 270 268
164 163 167 167 166 169 173 173 176 178 179 184 186 187 187 189 192 193 195 198 202 205 207 209 211 212 216 220 222 225 233 241 243 242 236 231 227 222 222 212 178 154 216 261 285 287 298 306 310 316 312 308 305 306 312 314 323 327 315 307 309 307 301 309 321 305 283 306 321 318 324 344 347 8 348 344 357 10 2 360 350 334 310 289 279
171 167 167 168 166 167 171 174 177 178 180 183 185 187 189 193 196 197 198 200 202 204 207 209 210 212 218 223 225 229 241 249 244 239 238 233 222 214 208 196 187 188 191 192 206 217 202 255 321 337 345 331 326 326 324 337 355 347 330 319 313 311 312 323 339 327 301 312 325 307 324 346 338 345 337 337 352 356 359 9 3 354 342 325 312
173 172 169 170 171 172 174 177 180 181 183 186 188 189 192 196 199 198 198 201 203 203 204 207 209 211 213 214 220 225 227 226 209 199 203 198 180 172 175 183 184 169 158 158 144 136 124 87 323 332 4 344 346 352 348 8 18 10 1 360 334 318 323 332 344 351 340 329 316 278 313 350 287 325 330 326 338 346 358 3 355 356 351 344 337
175 174 172 171 174 177 179 180 182 185 188 190 193 194 196 199 197 194 197 202 203 203 204 207 208 210 208 206 210 205 184 169 162 162 166 166 160 159 161 162 161 152 148 151 125 96 64 29 102 140 93 120 95 21 32 37 20 20 26 38 41 13 353 344 347 357 1 351 330 299 255 247 258 312 330 304 328 342 351 345 348 355 348 342 340
177 175 176 175 175 178 181 183 185 188 191 192 194 196 197 198 196 195 198 200 200 201 204 206 208 209 206 205 209 203 186 173 165 161 159 158 155 155 153 153 159 162 164 211 240 262 321 335 146 137 144 140 128 97 79 69 40 36 42 49 50 32 4 347 347 349 354 357 342 316 283 269 260 266 257 274 324 330 331 337 345 347 341 339 341
178 177 178 178 179 180 182 186 188 190 191 191 193 196 197 198 199 199 200 200 200 202 204 206 207 205 201 203 212 212 202 190 180 176 176 175 173 171 170 177 193 208 240 237 218 242 279 246 182 160 167 166 153 150 92 67 62 64 60 54 40 20 350 329 337 344 336 334 343 336 319 308 277 264 257 248 262 297 319 331 335 335 336 336 336
180 179 181 181 182 182 183 186 189 190 191 192 195 196 198 200 200 199 200 202 203 203 204 207 206 202 200 204 207 203 200 194 190 197 207 210 207 200 195 195 195 199 219 208 205 245 244 209 192 188 193 191 173 151 43 18 34 35 51 56 35 10 348 312 318 341 334 330 349 359 352 350 328 285 265 248 234 250 294 317 324 331 335 331 330
183 181 182 184 183 183 183 185 187 189 191 194 196 197 199 200 199 199 202 204 203 202 205 205 203 202 204 203 197 189 188 188 189 196 200 202 201 197 193 190 191 203 196 188 217 264 213 196 193 187 190 110 59 348 1 18 24 25 48 53 34 24 27 348 328 344 352 349 355 356 348 350 347 313 281 276 256 245 253 283 306 320 326 322 326
184 183 183 184 184 182 182 183 185 187 191 194 195 197 198 199 200 200 202 203 202 203 203 202 201 204 203 200 197 192 189 187 185 186 190 195 202 207 206 200 206 219 196 185 225 228 173 180 177 136 340 355 350 338 347 359 7 17 27 12 2 22 14 359 355 339 350 357 5 1 350 350 343 325 327 330 313 263 264 278 295 308 307 307 319
184 183 182 182 182 182 182 184 184 185 189 192 194 197 198 199 200 200 201 202 202 203 202 201 202 203 201 200 201 198 195 195 196 198 200 205 213 215 208 207 220 228 215 214 220 176 160 182 296 310 316 330 324 324 325 332 345 344 344 348 346 341 329 330 340 332 344 354 351 349 346 352 355 349 343 339 334 318 303 283 299 316 308 297 312
184 184 183 182 182 183 184 185 185 185 188 190 193 195 197 198 199 198 199 200 201 201 200 199 199 199 201 203 202 200 200 203 207 209 207 210 214 209 206 213 226 222 213 215 199 181 216 273 288 292 292 287 290 302 302 310 325 316 317 335 341 338 308 298 321 327 329 322 318 325 330 335 344 350 346 341 343 341 333 311 308 318 304 296 311
185 186 186 185 185 185 185 186 186 186 189 190 191 193 195 197 198 198 199 199 199 199 198 197 197 199 203 202 199 198 199 202 205 205 202 205 209 209 214 221 220 213 210 211 213 234 266 270 264 263 259 263 273 276 279 291 300 296 300 314 325 330 314 291 302 305 295 294 299 300 301 304 317 332 337 339 344 346 344 332 319 318 302 293 307
187 189 190 189 186 186 186 186 186 187 188 190 191 192 193 195 196 197 197 196 196 197 198 198 199 201 201 198 196 199 201 202 203 203 203 205 209 213 217 218 215 218 221 225 236 247 247 231 226 239 249 260 268 266 274 284 284 279 281 289 303 313 307 294 290 285 281 284 286 284 283 285 298 315 323 330 335 337 338 336 329 324 309 296 300
190 193 193 191 188 187 187 187 187 187 188 189 190 191 193 194 195 196 195 194 194 196 197 199 200 200 198 197 199 200 202 202 199 200 203 204 208 211 209 209 212 212 213 216 222 221 216 218 233 247 253 259 268 276 284 287 282 277 275 276 284 293 296 294 288 279 273 277 279 274 275 278 285 296 302 313 323 323 328 335 336 324 302 305 305
193 194 192 191 189 189 190 188 187 187 188 190 191 192 193 194 194 194 193 192 193 196 198 199 199 198 197 199 200 200 202 202 198 198 201 202 207 209 206 208 207 200 203 208 211 217 225 235 247 257 257 256 264 276 289 290 283 278 274 273 277 286 290 289 285 275 267 270 275 272 273 276 275 279 287 293 301 310 319 334 338 326 298 295 298
194 195 192 190 190 191 191 190 190 190 190 191 192 193 194 194 194 192 190 191 194 197 198 198 198 198 198 199 199 201 204 205 203 201 200 202 206 205 204 206 202 200 207 211 215 226 236 245 258 266 262 259 262 265 278 288 280 273 270 268 274 284 285 281 278 272 265 265 270 272 273 273 272 275 280 281 279 286 300 315 328 323 298 276 262
195 196 193 190 191 192 192 192 193 193 193 194 193 193 193 194 194 192 192 193 195 197 198 198 199 199 199 200 201 203 205 207 206 201 197 199 202 202 204 207 206 208 213 214 223 236 243 251 261 265 260 261 267 265 267 274 275 274 270 268 275 280 277 272 270 268 264 261 263 267 269 270 273 277 277 275 274 277 277 283 301 300 291 281 269
196 196 193 191 192 194 193 194 194 195 195 195 192 192 193 194 194 193 193 193 195 197 197 197 199 199 199 201 202 204 206 207 205 201 197 199 202 205 209 213 213 214 218 225 236 242 245 253 257 259 260 262 269 272 269 269 270 272 270 271 276 277 271 267 265 265 262 259 260 262 264 268 271 274 275 270 269 276 275 270 283 289 285 287 278
196 196 194 193 193 195 196 196 196 195 195 194 192 193 194 194 193 192 192 192 195 196 196 196 197 198 199 200 203 205 205 205 204 203 203 202 204 210 216 219 217 218 226 238 246 246 249 257 260 262 267 269 273 275 274 271 269 268 268 271 276 277 273 268 266 264 260 259 261 259 261 265 265 265 269 267 263 268 272 269 274 281 283 286 280
197 197 194 193 194 196 197 197 195 194 194 194 194 195 194 194 193 192 191 193 195 195 195 196 196 198 201 202 203 204 204 205 205 207 207 205 208 214 219 219 218 221 232 242 247 248 253 260 264 267 270 273 276 276 275 273 270 270 269 271 275 276 275 271 266 263 262 261 260 258 259 261 259 261 264 262 260 263 267 270 271 274 280 286 283
196 196 194 193 195 196 195 194 194 194 195 195 195 195 196 195 193 191 193 195 195 194 194 194 195 198 200 201 202 203 204 205 205 207 207 208 214 218 217 218 220 226 234 241 247 250 255 262 267 270 271 274 278 281 281 277 275 275 273 272 274 275 276 274 268 266 267 266 261 257 259 261 258 258 260 260 259 260 264 268 271 273 276 282 287
196 195 197 194 192 193 193 193 195 196 197 196 196 196 196 195 192 192 195 197 195 194 193 191 193 197 199 200 201 201 203 204 206 208 209 213 218 215 211 216 222 232 241 246 250 253 259 267 270 271 273 276 282 286 286 281 278 277 275 272 272 274 276 276 273 271 270 269 264 259 260 263 262 260 259 259 258 259 263 265 268 271 272 277 287
195 196 198 191 186 188 193 196 197 197 197 196 197 197 195 193 193 194 198 197 194 193 190 188 192 196 197 198 200 201 202 203 205 209 213 218 220 212 208 216 227 241 251 254 254 254 258 261 262 266 272 275 279 282 283 281 278 277 277 275 273 273 275 276 277 275 271 267 267 267 266 267 266 265 262 260 259 260 263 265 266 268 270 273 281
192 194 194 190 189 192 195 198 198 198 198 197 197 197 195 193 194 196 198 196 193 192 188 185 188 194 197 198 198 199 199 200 203 209 217 223 222 216 217 225 235 245 250 249 248 248 248 249 252 262 270 269 271 280 287 288 285 284 284 281 277 274 274 276 278 277 273 270 270 272 273 273 272 272 270 267 265 263 263 265 265 266 268 270 276
192 191 190 190 192 196 196 199 200 200 199 198 197 196 194 192 194 198 198 195 192 191 187 184 185 192 198 199 197 196 194 197 203 208 216 223 223 225 230 235 237 236 230 227 230 234 238 242 250 263 270 267 277 292 294 290 287 286 285 282 278 275 273 276 280 279 275 272 272 274 276 277 277 279 280 278 272 267 265 265 266 267 267 267 273
195 191 191 192 193 197 199 199 201 201 200 199 199 197 194 193 196 197 196 193 191 189 188 185 184 188 194 194 193 193 194 200 206 208 215 221 224 230 237 237 228 216 211 214 223 235 241 243 249 262 272 275 283 289 283 278 282 284 282 280 278 274 272 275 279 278 274 271 272 276 278 281 283 286 289 288 281 274 270 269 270 271 268 267 274
198 199 197 196 198 199 200 201 202 201 198 197 198 197 196 196 198 197 194 191 190 188 188 185 182 181 184 187 193 198 200 204 207 210 217 222 225 233 236 230 218 213 217 224 239 255 257 256 260 265 271 275 279 280 274 275 286 287 283 281 279 276 274 274 275 275 273 272 274 278 282 284 286 291 296 297 291 283 276 274 276 276 272 271 277
200 205 204 203 205 203 200 201 201 200 197 197 197 195 195 195 196 195 190 187 187 186 186 182 173 169 178 190 200 206 205 205 208 212 218 222 225 231 231 224 221 225 233 241 255 262 261 269 274 268 268 270 272 274 274 277 285 285 281 280 279 278 276 273 274 275 274 274 275 279 283 285 286 290 294 296 296 292 284 279 280 280 278 278 280
206 210 211 213 216 215 211 204 203 203 200 197 194 190 188 190 192 192 189 187 185 183 183 178 166 169 186 196 201 203 203 209 215 216 218 221 225 230 230 227 227 231 238 247 254 255 257 268 273 269 269 269 270 272 273 276 281 280 277 276 276 277 276 273 273 274 274 276 276 278 282 283 284 287 292 298 302 300 295 289 288 286 285 284 281
210 214 216 220 228 230 222 213 215 211 201 192 183 179 182 188 191 192 187 181 177 177 182 180 172 179 192 196 194 194 201 221 224 218 216 220 224 228 229 228 229 234 243 248 248 252 259 266 268 268 270 270 269 269 270 274 277 275 274 275 274 273 272 271 271 272 274 276 276 278 281 282 282 285 291 299 304 305 304 300 295 293 291 289 286
197 202 205 210 220 221 214 216 219 211 197 188 181 181 188 191 188 181 167 161 168 180 187 180 172 179 189 187 183 189 214 225 222 217 217 220 223 225 226 227 231 238 244 246 248 254 261 264 266 267 270 273 273 271 269 271 274 274 274 273 270 269 267 268 270 273 274 276 278 280 282 281 281 283 288 296 303 307 307 301 297 297 298 299 297
190 196 201 205 210 211 209 210 205 188 183 185 186 190 194 186 171 159 158 163 171 179 177 165 164 173 180 178 181 211 224 222 220 218 217 219 221 224 225 228 234 239 241 244 249 255 258 261 263 264 268 274 276 272 270 270 270 273 274 271 270 269 266 266 271 274 278 282 285 284 283 281 280 281 285 293 301 306 305 300 298 300 302 304 303
186 192 196 202 190 146 135 138 138 144 160 169 173 172 160 139 120 126 141 146 146 145 144 147 155 164 170 178 203 220 219 220 221 219 218 219 221 223 224 228 233 237 240 244 248 252 255 257 259 258 261 268 271 270 268 266 266 268 267 267 268 267 265 267 272 280 287 291 291 288 285 282 281 283 287 292 298 302 301 299 300 301 303 304 303
190 185 177 167 148 136 133 137 147 155 157 155 151 144 140 135 129 130 133 134 133 136 144 151 156 160 172 200 219 216 215 219 219 217 216 216 218 221 224 228 233 236 239 243 247 249 252 254 255 256 258 264 268 268 264 262 265 269 269 270 270 266 263 266 275 288 296 296 294 291 289 286 284 286 289 292 296 297 295 297 299 300 303 303 303
134 125 134 137 135 137 141 145 150 152 149 147 147 147 145 143 142 143 147 150 154 159 165 168 170 173 183 204 218 217 216 217 215 212 211 213 217 222 226 229 231 234 237 241 245 246 248 253 257 260 264 267 266 262 260 265 275 281 280 278 271 260 260 270 282 292 296 295 295 294 293 291 288 287 290 294 295 292 291 296 297 300 306 307 309
109 105 109 119 126 134 142 145 144 145 149 151 151 148 143 140 144 150 154 161 170 174 174 176 180 181 189 205 220 223 223 219 215 214 215 217 220 224 228 230 230 232 237 242 245 246 248 255 263 266 265 263 258 257 266 279 287 288 282 273 262 259 269 278 283 287 288 291 295 294 294 291 287 287 291 292 291 289 291 294 297 306 312 310 312
126 126 125 129 132 135 140 144 144 148 154 156 155 150 145 144 152 159 164 172 180 180 179 183 187 188 197 212 222 227 226 219 215 217 220 222 224 227 229 229 229 233 238 241 242 242 246 255 262 260 254 251 258 270 280 283 282 277 267 260 260 269 275 276 279 283 287 294 299 299 297 291 285 288 291 289 289 289 289 289 298 312 312 308 312
131 133 134 137 139 139 142 147 150 154 157 157 156 153 152 155 160 165 170 179 185 186 187 190 191 195 206 217 223 227 225 218 217 221 222 223 225 227 227 226 228 231 234 236 236 238 247 251 248 245 249 262 278 287 283 272 265 258 254 256 262 266 271 275 280 287 294 302 306 306 303 296 292 295 295 294 296 291 282 284 302 315 312 310 314
134 136 137 139 143 146 148 154 157 157 158 159 157 156 160 164 166 172 180 185 188 191 193 194 197 204 213 219 223 225 224 220 220 222 222 223 225 224 223 223 223 221 213 191 164 243 257 253 245 245 260 278 285 283 274 262 257 255 255 260 264 268 276 282 288 294 300 306 309 308 305 302 301 300 298 301 300 285 272 285 310 320 318 316 317
129 138 142 142 144 147 150 157 160 160 162 163 160 160 164 167 174 185 191 192 192 194 198 202 206 211 217 222 227 230 228 226 226 225 222 220 219 219 219 215 207 192 163 149 183 237 250 246 244 251 261 267 268 269 267 263 259 258 259 262 265 273 282 286 291 298 302 305 308 307 305 306 304 298 295 298 291 268 264 301 320 326 328 325 323
132 146 153 148 144 150 156 160 164 166 168 167 165 166 170 176 187 196 196 195 198 202 206 211 214 219 224 229 232 234 233 232 233 231 223 217 215 211 203 193 183 166 151 172 209 239 244 237 240 246 241 245 255 258 262 266 264 261 261 262 268 280 287 288 293 299 301 303 304 302 303 304 301 297 294 291 272 248 290 325 326 329 336 336 334
136 148 158 152 147 152 161 166 170 171 171 171 172 173 178 188 197 199 196 197 202 207 213 220 225 229 230 227 223 225 234 240 240 236 230 226 219 203 186 178 175 168 175 214 234 243 237 231 234 228 210 222 246 255 260 263 263 263 264 268 277 286 287 289 294 297 298 301 301 300 302 302 300 303 308 307 239 305 336 338 333 337 346 350 351
140 149 160 163 158 157 163 171 176 176 175 177 178 177 183 198 206 206 204 205 208 212 217 221 220 216 213 218 222 225 231 235 235 232 227 216 201 186 175 175 184 196 222 238 242 236 228 226 225 214 201 216 241 252 258 264 267 269 272 280 286 286 285 289 293 294 297 303 305 303 299 290 17 48 63 72 38 360 351 347 346 353 358 360 1
144 155 164 168 162 160 166 172 177 182 183 184 184 185 191 201 206 192 181 183 186 187 180 165 151 156 199 231 236 231 228 230 231 227 216 200 185 179 177 180 194 216 230 234 231 224 221 222 222 217 210 220 238 250 257 264 270 272 281 290 289 286 286 287 287 291 299 305 319 78 111 117 83 33 47 67 36 15 4 359 3 8 9 8 8
162 166 167 166 163 164 168 167 172 182 184 183 187 192 191 178 145 124 121 114 102 107 142 159 168 191 214 224 223 216 209 207 205 199 190 181 176 177 182 188 204 216 218 219 219 216 213 213 220 227 222 223 235 244 249 259 270 282 292 294 288 288 293 288 284 289 295 271 114 107 100 84 42 35 64 70 41 23 12 12 16 16 13 13 11
172 173 169 164 159 158 159 158 164 176 180 181 184 180 157 138 125 117 117 119 124 148 194 206 201 202 204 201 195 187 177 173 172 171 170 171 175 185 193 197 202 205 204 202 200 198 200 208 223 230 224 224 234 241 248 264 283 295 298 292 284 292 306 312 315 317 68 119 111 109 100 67 37 37 53 49 35 27 22 21 21 17 12 13 13
170 169 165 158 151 150 150 149 155 169 176 174 157 136 126 122 115 107 106 125 165 187 208 218 217 211 201 187 178 173 168 167 167 168 170 175 184 194 194 188 185 188 190 191 189 189 199 215 227 230 228 231 239 248 259 277 292 296 291 278 275 311 333 342 349 11 102 110 93 81 67 50 35 31 37 36 29 24 21 21 21 16 11 11 13
147 146 147 147 145 145 142 136 139 151 156 145 126 119 118 115 110 103 76 300 237 197 196 207 210 202 187 175 171 171 172 173 174 175 174 171 169 172 175 173 171 173 177 182 188 198 216 230 235 237 239 240 246 257 269 282 288 283 265 230 162 10 357 351 357 54 103 77 59 62 57 53 48 43 41 36 28 22 17 13 14 14 11 9 10
145 141 140 143 145 143 136 128 123 124 123 113 103 107 115 115 112 108 284 260 225 194 188 196 198 190 184 181 180 180 181 181 181 181 177 166 154 150 156 163 165 165 171 185 198 204 220 232 229 229 239 245 251 261 268 271 264 231 192 161 107 32 2 352 330 254 160 60 68 73 65 58 54 50 45 38 29 24 18 12 9 9 9 9 8